weather.gov     
National Weather Service

Regional Weather Roundup
NWS Homepage
This page is being discontinued on March 12, 2014.
The same data is available at this site. Please update your bookmarks.
Thank you, and we apologize for the inconvenience.
Please send an email to SR-SRH.Webmaster@noaa.gov with any concerns.


Current Version
Previous Version:    01  02  03  04  05  06  07  08  09  10  11  12  13  14  15  16  17  18  19  20  21  22  23  24  25  26  27  28  29  30  
   31  32  33  34  35  36  37  38  39  40  41  42  43  44  45  46  47  48  49  50  51  52  53  54  55  56  57  58  59  60  
[Printable]
747
ASUS44 KOHX 200515
RWROHX
MIDDLE TENNESSEE HOURLY WEATHER ROUNDUP
NATIONAL WEATHER SERVICE NASHVILLE TN
1100 PM CST FRI DEC 19 2014

NOTE: "FAIR" INDICATES FEW OR NO CLOUDS BELOW 12,000 FEET WITH
NO SIGNIFICANT WEATHER AND/OR OBSTRUCTIONS TO VISIBILITY.

* THESE REPORTS ARE NOT UNDER NWS QUALITY CONTROL AND MAY NOT
  REPORT WEATHER SUCH AS PRECIPITATION AND FOG.


TNZ005>011-023>034-057-059-062>066-078-080-200600
...NORTHERN MIDDLE TENNESSEE...

CITY           SKY/WX    TMP DP  RH WIND       PRES   REMARKS
CLARKSVILLE    CLOUDY    35  28  75 NE3       30.24F
CROSSVILLE     CLOUDY    35  26  69 NE5       30.16F WCI  31
GALLATIN       MOCLDY    34  28  79 CALM      30.24R
DICKSON        CLOUDY    34  28  80 CALM      30.22S
LEBANON        CLOUDY    34  27  76 NW3       30.23R
LIVINGSTON     CLOUDY    31  27  85 NE5       30.18F WCI  26
NASHVILLE      CLOUDY    37  27  67 E7        30.24S WCI  32
WEST NASHVILLE MOCLDY    36  27  69 NE3       30.24F
PORTLAND       CLOUDY    32  25  74 E3        30.21S
SMYRNA         CLOUDY    36  29  76 CALM      30.26R
SPARTA         CLEAR     34  28  80 N3        30.17F
$$
TNZ056-058-060-061-075>077-079-093>097-200600
...SOUTHERN MIDDLE TENNESSEE...

CITY           SKY/WX    TMP DP  RH WIND       PRES   REMARKS
LEWISBURG      CLOUDY    37  29  73 VRB3      30.23S
MCMINNVILLE    MOCLDY    36  30  80 CALM      30.20R
MURFREESBORO   CLOUDY    36  28  73 NW3       30.24R
SHELBYVILLE    CLOUDY    37  30  75 NW7       30.24R WCI  32
TULLAHOMA      CLOUDY    36  28  75 N3        30.20R
WINCHESTER     CLOUDY    36  30  80 NW7       30.20R WCI  30
$$


...KEY TO REMARKS...
VSB - VISIBILITY IN MILES
WCI - WIND CHILL INDEX
HX  - HEAT INDEX





U.S. Dept. of Commerce
NOAA National Weather Service
1325 East West Highway
Silver Spring, MD 20910
E-mail: w-nws.webmaster@noaa.gov
Page last modified: May 16, 2007
NATIONAL WEATHER SERVICE: for Safety, for Work, for Fun - FOR LIFE